Location: Street
(51.1247°N, 2.7429°W)
Time: 06:36:23
(UTC+01:00)

METEOR M2 - Pass Details

Date: 10 April 2023
Orbit: 818 x 827 km, 98.4° (Epoch: 06 June)

Event Time Altitude Azimuth Distance (km) Brightness Sun altitude
Rises 20:26:37 0° 226° (SW) 3,359 ? -5.1°
Reaches altitude 10° 20:30:58 10° 260° (W) 2,432 ? -5.7°
Maximum altitude 20:32:34 11° 277° (W) 2,345 ? -6.0°
Drops below altitude 10° 20:34:11 10° 295° (WNW) 2,436 ? -6.2°
Sets 20:38:35 0° 329° (NNW) 3,375 ? -6.8°
